Time,TemperatureF,DewpointF,PressureIn,WindDirection,WindDirectionDegrees,WindSpeedMPH,WindSpeedGustMPH,Humidity,HourlyPrecipIn,Conditions,Clouds,dailyrainin,SoftwareType,DateUTC
2013-10-29 00:05:00,39.0,38.0,-100.00,North,350,0.0,1.0,96,0.05,,,0.05,,2013-10-29 08:05:00,
2013-10-29 00:13:00,39.0,38.0,-100.00,North,350,0.0,1.0,96,0.05,,,0.05,,2013-10-29 08:13:00,
2013-10-29 00:24:00,40.0,38.0,-100.00,WSW,255,1.0,3.0,96,0.05,,,0.06,,2013-10-29 08:24:00,
2013-10-29 00:31:00,40.0,38.0,-100.00,WSW,255,1.0,3.0,96,0.05,,,0.06,,2013-10-29 08:31:00,
2013-10-29 00:42:00,40.0,38.0,-100.00,WSW,255,1.0,3.0,96,0.05,,,0.06,,2013-10-29 08:42:00,
2013-10-29 00:52:00,39.0,39.0,-100.00,NW,310,1.0,4.0,97,0.04,,,0.09,,2013-10-29 08:52:00,
2013-10-29 01:02:00,39.0,39.0,-100.00,NW,310,1.0,4.0,97,0.04,,,0.09,,2013-10-29 09:02:00,
2013-10-29 01:11:00,39.0,39.0,-100.00,NW,310,1.0,4.0,97,0.04,,,0.09,,2013-10-29 09:11:00,
2013-10-29 01:21:00,39.0,39.0,-100.00,ESE,105,0.0,2.0,97,0.03,,,0.09,,2013-10-29 09:21:00,
2013-10-29 01:33:00,39.0,39.0,-100.00,ESE,105,0.0,2.0,97,0.03,,,0.09,,2013-10-29 09:33:00,
2013-10-29 01:42:00,39.0,39.0,-100.00,ESE,105,0.0,2.0,97,0.03,,,0.09,,2013-10-29 09:42:00,
2013-10-29 01:53:00,40.0,40.0,-100.00,North,0,1.0,4.0,97,0.02,,,0.11,,2013-10-29 09:53:00,
2013-10-29 02:03:00,40.0,40.0,-100.00,North,0,1.0,4.0,97,0.02,,,0.11,,2013-10-29 10:03:00,
2013-10-29 02:13:00,40.0,40.0,-100.00,North,0,1.0,4.0,97,0.02,,,0.11,,2013-10-29 10:13:00,
2013-10-29 02:23:00,40.0,40.0,-100.00,North,5,1.0,7.0,97,0.04,,,0.13,,2013-10-29 10:23:00,
2013-10-29 02:33:00,40.0,40.0,-100.00,North,5,1.0,7.0,97,0.04,,,0.13,,2013-10-29 10:33:00,
2013-10-29 02:42:00,40.0,40.0,-100.00,North,5,1.0,7.0,97,0.04,,,0.13,,2013-10-29 10:42:00,
2013-10-29 02:53:00,40.0,39.0,-100.00,East,90,0.0,2.0,97,0.04,,,0.15,,2013-10-29 10:53:00,
2013-10-29 03:03:00,40.0,39.0,-100.00,East,90,0.0,2.0,97,0.04,,,0.15,,2013-10-29 11:03:00,
2013-10-29 03:12:00,40.0,39.0,-100.00,East,90,0.0,2.0,97,0.04,,,0.15,,2013-10-29 11:12:00,
2013-10-29 03:20:00,40.0,39.0,-100.00,West,260,1.0,3.0,97,0.01,,,0.16,,2013-10-29 11:20:00,
2013-10-29 03:22:00,40.0,39.0,-100.00,NE,35,0.0,2.0,97,0.02,,,0.15,,2013-10-29 11:22:00,
2013-10-29 03:33:00,40.0,39.0,-100.00,NE,35,0.0,2.0,97,0.02,,,0.15,,2013-10-29 11:33:00,
2013-10-29 03:42:00,40.0,39.0,-100.00,NE,35,0.0,2.0,97,0.02,,,0.15,,2013-10-29 11:42:00,
2013-10-29 03:52:00,40.0,39.0,-100.00,West,260,1.0,3.0,97,0.01,,,0.16,,2013-10-29 11:52:00,
2013-10-29 04:01:00,40.0,39.0,-100.00,West,260,1.0,3.0,97,0.01,,,0.16,,2013-10-29 12:01:00,
2013-10-29 04:11:00,40.0,39.0,-100.00,West,260,1.0,3.0,97,0.01,,,0.16,,2013-10-29 12:11:00,
2013-10-29 04:52:00,40.0,39.0,-100.00,South,170,1.0,7.0,97,0.00,,,0.16,,2013-10-29 12:52:00,
2013-10-29 05:02:00,40.0,39.0,-100.00,South,170,1.0,7.0,97,0.00,,,0.16,,2013-10-29 13:02:00,
2013-10-29 05:11:00,40.0,39.0,-100.00,South,170,1.0,7.0,97,0.00,,,0.16,,2013-10-29 13:11:00,
2013-10-29 05:21:00,39.0,38.0,-100.00,NNW,345,2.0,4.0,97,0.00,,,0.16,,2013-10-29 13:21:00,
2013-10-29 05:32:00,39.0,38.0,-100.00,NNW,345,2.0,4.0,97,0.00,,,0.16,,2013-10-29 13:32:00,
2013-10-29 05:42:00,39.0,38.0,-100.00,NNW,345,2.0,4.0,97,0.00,,,0.16,,2013-10-29 13:42:00,
2013-10-29 05:52:00,39.0,38.0,-100.00,SE,125,0.0,1.0,97,0.00,,,0.16,,2013-10-29 13:52:00,
2013-10-29 06:02:00,39.0,38.0,-100.00,SE,125,0.0,1.0,97,0.00,,,0.16,,2013-10-29 14:02:00,
2013-10-29 06:11:00,39.0,38.0,-100.00,SE,125,0.0,1.0,97,0.00,,,0.16,,2013-10-29 14:11:00,
2013-10-29 06:21:00,38.0,37.0,-100.00,SW,235,2.0,3.0,97,0.00,,,0.16,,2013-10-29 14:21:00,
2013-10-29 06:32:00,38.0,37.0,-100.00,SW,235,2.0,3.0,97,0.00,,,0.16,,2013-10-29 14:32:00,
2013-10-29 06:42:00,38.0,37.0,-100.00,SW,235,2.0,3.0,97,0.00,,,0.16,,2013-10-29 14:42:00,
2013-10-29 06:52:00,38.0,37.0,-100.00,NE,50,0.0,2.0,97,0.00,,,0.16,,2013-10-29 14:52:00,
2013-10-29 07:02:00,38.0,37.0,-100.00,NE,50,0.0,2.0,97,0.00,,,0.16,,2013-10-29 15:02:00,
2013-10-29 07:11:00,38.0,37.0,-100.00,NE,50,0.0,2.0,97,0.00,,,0.16,,2013-10-29 15:11:00,
2013-10-29 07:21:00,38.0,37.0,-100.00,NNE,30,0.0,1.0,97,0.00,,,0.16,,2013-10-29 15:21:00,
2013-10-29 07:33:00,38.0,37.0,-100.00,NNE,30,0.0,1.0,97,0.00,,,0.16,,2013-10-29 15:33:00,
2013-10-29 07:44:00,38.0,37.0,-100.00,NNE,30,0.0,1.0,97,0.00,,,0.16,,2013-10-29 15:44:00,
2013-10-29 07:53:00,38.0,38.0,-100.00,NNW,330,0.0,3.0,97,0.00,,,0.16,,2013-10-29 15:53:00,
2013-10-29 08:03:00,38.0,38.0,-100.00,NNW,330,0.0,3.0,97,0.00,,,0.16,,2013-10-29 16:03:00,
2013-10-29 08:12:00,38.0,38.0,-100.00,NNW,330,0.0,3.0,97,0.00,,,0.16,,2013-10-29 16:12:00,
2013-10-29 08:23:00,38.0,38.0,-100.00,SE,145,0.0,0.0,97,0.00,,,0.16,,2013-10-29 16:23:00,
2013-10-29 08:33:00,38.0,38.0,-100.00,SE,145,0.0,0.0,97,0.00,,,0.16,,2013-10-29 16:33:00,
2013-10-29 08:43:00,38.0,38.0,-100.00,SE,145,0.0,0.0,97,0.00,,,0.16,,2013-10-29 16:43:00,
2013-10-29 08:53:00,38.0,38.0,-100.00,East,95,0.0,1.0,97,0.00,,,0.16,,2013-10-29 16:53:00,
2013-10-29 09:02:00,38.0,38.0,-100.00,East,95,0.0,1.0,97,0.00,,,0.16,,2013-10-29 17:02:00,
2013-10-29 09:12:00,38.0,38.0,-100.00,East,95,0.0,1.0,97,0.00,,,0.16,,2013-10-29 17:12:00,
2013-10-29 09:22:00,39.0,38.0,-100.00,East,85,0.0,1.0,97,0.00,,,0.16,,2013-10-29 17:22:00,
2013-10-29 09:33:00,39.0,38.0,-100.00,East,85,0.0,1.0,97,0.00,,,0.16,,2013-10-29 17:33:00,
2013-10-29 09:42:00,39.0,38.0,-100.00,East,85,0.0,1.0,97,0.00,,,0.16,,2013-10-29 17:42:00,
2013-10-29 09:52:00,39.0,38.0,-100.00,NNE,15,0.0,0.0,97,0.00,,,0.16,,2013-10-29 17:52:00,
2013-10-29 10:01:00,39.0,38.0,-100.00,NNE,15,0.0,0.0,97,0.00,,,0.16,,2013-10-29 18:01:00,
2013-10-29 10:12:00,39.0,38.0,-100.00,NNE,15,0.0,0.0,97,0.00,,,0.16,,2013-10-29 18:12:00,
2013-10-29 10:21:00,39.0,38.0,-100.00,SSW,200,0.0,1.0,97,0.00,,,0.16,,2013-10-29 18:21:00,
2013-10-29 10:32:00,39.0,38.0,-100.00,SSW,200,0.0,1.0,97,0.00,,,0.16,,2013-10-29 18:32:00,
2013-10-29 10:42:00,39.0,38.0,-100.00,SSW,200,0.0,1.0,97,0.00,,,0.16,,2013-10-29 18:42:00,
2013-10-29 10:52:00,40.0,39.0,-100.00,SW,230,0.0,0.0,97,0.00,,,0.16,,2013-10-29 18:52:00,
2013-10-29 11:02:00,40.0,39.0,-100.00,SW,230,0.0,0.0,97,0.00,,,0.16,,2013-10-29 19:02:00,
2013-10-29 11:11:00,40.0,39.0,-100.00,SW,230,0.0,0.0,97,0.00,,,0.16,,2013-10-29 19:11:00,
2013-10-29 11:21:00,42.0,41.0,-100.00,South,170,1.0,2.0,97,0.00,,,0.16,,2013-10-29 19:21:00,
2013-10-29 11:32:00,42.0,41.0,-100.00,South,170,1.0,2.0,97,0.00,,,0.16,,2013-10-29 19:32:00,
2013-10-29 11:42:00,42.0,41.0,-100.00,South,170,1.0,2.0,97,0.00,,,0.16,,2013-10-29 19:42:00,
2013-10-29 11:53:00,43.0,42.0,-100.00,South,180,0.0,1.0,97,0.00,,,0.16,,2013-10-29 19:53:00,
2013-10-29 12:02:00,43.0,42.0,-100.00,South,180,0.0,1.0,97,0.00,,,0.16,,2013-10-29 20:02:00,
2013-10-29 12:11:00,43.0,42.0,-100.00,South,180,0.0,1.0,97,0.00,,,0.16,,2013-10-29 20:11:00,
2013-10-29 12:21:00,43.0,41.0,-100.00,WSW,255,0.0,1.0,93,0.00,,,0.16,,2013-10-29 20:21:00,
2013-10-29 12:32:00,43.0,41.0,-100.00,WSW,255,0.0,1.0,93,0.00,,,0.16,,2013-10-29 20:32:00,
2013-10-29 12:42:00,43.0,41.0,-100.00,WSW,255,0.0,1.0,93,0.00,,,0.16,,2013-10-29 20:42:00,
2013-10-29 12:52:00,44.0,41.0,-100.00,North,0,1.0,3.0,90,0.00,,,0.16,,2013-10-29 20:52:00,
2013-10-29 13:01:00,44.0,41.0,-100.00,North,0,1.0,3.0,90,0.00,,,0.16,,2013-10-29 21:01:00,
2013-10-29 13:11:00,44.0,41.0,-100.00,North,0,1.0,3.0,90,0.00,,,0.16,,2013-10-29 21:11:00,
2013-10-29 13:22:00,44.0,40.0,-100.00,West,270,1.0,2.0,86,0.00,,,0.16,,2013-10-29 21:22:00,
2013-10-29 13:34:00,44.0,40.0,-100.00,West,270,1.0,2.0,86,0.00,,,0.16,,2013-10-29 21:34:00,
2013-10-29 13:43:00,44.0,40.0,-100.00,West,270,1.0,2.0,86,0.00,,,0.16,,2013-10-29 21:43:00,
2013-10-29 13:54:00,44.0,39.0,-100.00,NNW,340,0.0,1.0,83,0.00,,,0.16,,2013-10-29 21:54:00,
2013-10-29 14:03:00,44.0,39.0,-100.00,NNW,340,0.0,1.0,83,0.00,,,0.16,,2013-10-29 22:03:00,
2013-10-29 14:13:00,44.0,39.0,-100.00,NNW,340,0.0,1.0,83,0.00,,,0.16,,2013-10-29 22:13:00,
2013-10-29 14:23:00,45.0,38.0,-100.00,SSW,195,1.0,2.0,77,0.00,,,0.16,,2013-10-29 22:23:00,
2013-10-29 14:33:00,45.0,38.0,-100.00,SSW,195,1.0,2.0,77,0.00,,,0.16,,2013-10-29 22:33:00,
2013-10-29 14:43:00,45.0,38.0,-100.00,SSW,195,1.0,2.0,77,0.00,,,0.16,,2013-10-29 22:43:00,
2013-10-29 14:53:00,45.0,37.0,-100.00,SSW,210,2.0,4.0,74,0.00,,,0.16,,2013-10-29 22:53:00,
2013-10-29 15:03:00,45.0,37.0,-100.00,SSW,210,2.0,4.0,74,0.00,,,0.16,,2013-10-29 23:03:00,
2013-10-29 15:12:00,45.0,37.0,-100.00,SSW,210,2.0,4.0,74,0.00,,,0.16,,2013-10-29 23:12:00,
2013-10-29 15:21:00,45.0,38.0,-100.00,SW,235,0.0,2.0,75,0.00,,,0.16,,2013-10-29 23:21:00,
2013-10-29 15:33:00,45.0,38.0,-100.00,SW,235,0.0,2.0,75,0.00,,,0.16,,2013-10-29 23:33:00,
2013-10-29 15:42:00,45.0,38.0,-100.00,SW,235,0.0,2.0,75,0.00,,,0.16,,2013-10-29 23:42:00,
2013-10-29 15:53:00,45.0,38.0,-100.00,West,260,0.0,1.0,75,0.00,,,0.16,,2013-10-29 23:53:00,
2013-10-29 16:01:00,45.0,38.0,-100.00,West,260,0.0,1.0,75,0.00,,,0.16,,2013-10-30 00:01:00,
2013-10-29 16:21:00,45.0,38.0,-100.00,SSE,150,1.0,1.0,76,0.00,,,0.16,,2013-10-30 00:21:00,
2013-10-29 16:32:00,45.0,38.0,-100.00,SSE,150,1.0,1.0,76,0.00,,,0.16,,2013-10-30 00:32:00,
2013-10-29 16:52:00,45.0,39.0,-100.00,ESE,115,1.0,1.0,81,0.00,,,0.16,,2013-10-30 00:52:00,
2013-10-29 17:01:00,45.0,39.0,-100.00,ESE,115,1.0,1.0,81,0.00,,,0.16,,2013-10-30 01:01:00,
2013-10-29 17:11:00,45.0,39.0,-100.00,ESE,115,1.0,1.0,81,0.00,,,0.16,,2013-10-30 01:11:00,
2013-10-29 17:22:00,44.0,40.0,-100.00,SSW,195,0.0,1.0,87,0.00,,,0.16,,2013-10-30 01:22:00,
2013-10-29 17:31:00,44.0,40.0,-100.00,SSW,195,0.0,1.0,87,0.00,,,0.16,,2013-10-30 01:31:00,
2013-10-29 17:42:00,44.0,40.0,-100.00,SSW,195,0.0,1.0,87,0.00,,,0.16,,2013-10-30 01:42:00,
2013-10-29 17:52:00,42.0,40.0,-100.00,ENE,60,1.0,2.0,93,0.00,,,0.16,,2013-10-30 01:52:00,
2013-10-29 18:02:00,42.0,40.0,-100.00,ENE,60,1.0,2.0,93,0.00,,,0.16,,2013-10-30 02:02:00,
2013-10-29 18:11:00,42.0,40.0,-100.00,ENE,60,1.0,2.0,93,0.00,,,0.16,,2013-10-30 02:11:00,
2013-10-29 18:21:00,42.0,41.0,-100.00,SE,145,1.0,1.0,94,0.00,,,0.16,,2013-10-30 02:21:00,
2013-10-29 18:32:00,42.0,41.0,-100.00,SE,145,1.0,1.0,94,0.00,,,0.16,,2013-10-30 02:32:00,
2013-10-29 18:42:00,42.0,41.0,-100.00,SE,145,1.0,1.0,94,0.00,,,0.16,,2013-10-30 02:42:00,
2013-10-29 18:52:00,42.0,41.0,-100.00,East,95,0.0,1.0,95,0.00,,,0.16,,2013-10-30 02:52:00,
2013-10-29 19:02:00,42.0,41.0,-100.00,East,95,0.0,1.0,95,0.00,,,0.16,,2013-10-30 03:02:00,
2013-10-29 19:11:00,42.0,41.0,-100.00,East,95,0.0,1.0,95,0.00,,,0.16,,2013-10-30 03:11:00,
2013-10-29 19:21:00,42.0,40.0,-100.00,SSE,160,0.0,1.0,95,0.00,,,0.16,,2013-10-30 03:21:00,
2013-10-29 19:34:00,42.0,40.0,-100.00,SSE,160,0.0,1.0,95,0.00,,,0.16,,2013-10-30 03:34:00,
2013-10-29 19:44:00,42.0,40.0,-100.00,SSE,160,0.0,1.0,95,0.00,,,0.16,,2013-10-30 03:44:00,
2013-10-29 19:54:00,42.0,40.0,-100.00,ENE,65,0.0,0.0,95,0.00,,,0.16,,2013-10-30 03:54:00,
2013-10-29 20:03:00,42.0,40.0,-100.00,ENE,65,0.0,0.0,95,0.00,,,0.16,,2013-10-30 04:03:00,
2013-10-29 20:13:00,42.0,40.0,-100.00,ENE,65,0.0,0.0,95,0.00,,,0.16,,2013-10-30 04:13:00,
2013-10-29 20:24:00,42.0,40.0,-100.00,East,85,1.0,2.0,95,0.00,,,0.16,,2013-10-30 04:24:00,
2013-10-29 20:34:00,42.0,40.0,-100.00,East,85,1.0,2.0,95,0.00,,,0.16,,2013-10-30 04:34:00,
2013-10-29 20:44:00,42.0,40.0,-100.00,East,85,1.0,2.0,95,0.00,,,0.16,,2013-10-30 04:44:00,
2013-10-29 20:53:00,41.0,40.0,-100.00,ESE,110,0.0,2.0,95,0.00,,,0.16,,2013-10-30 04:53:00,
2013-10-29 21:03:00,41.0,40.0,-100.00,ESE,110,0.0,2.0,95,0.00,,,0.16,,2013-10-30 05:03:00,
2013-10-29 21:13:00,41.0,40.0,-100.00,ESE,110,0.0,2.0,95,0.00,,,0.16,,2013-10-30 05:13:00,
2013-10-29 21:22:00,41.0,40.0,-100.00,ESE,115,1.0,2.0,94,0.00,,,0.16,,2013-10-30 05:22:00,
2013-10-29 21:34:00,41.0,40.0,-100.00,ESE,115,1.0,2.0,94,0.00,,,0.16,,2013-10-30 05:34:00,
2013-10-29 21:43:00,41.0,40.0,-100.00,ESE,115,1.0,2.0,94,0.00,,,0.16,,2013-10-30 05:43:00,
2013-10-29 21:52:00,41.0,39.0,-100.00,ESE,120,1.0,3.0,92,0.00,,,0.16,,2013-10-30 05:52:00,
2013-10-29 22:02:00,41.0,39.0,-100.00,ESE,120,1.0,3.0,92,0.00,,,0.16,,2013-10-30 06:02:00,
2013-10-29 22:13:00,41.0,39.0,-100.00,ESE,120,1.0,3.0,92,0.00,,,0.16,,2013-10-30 06:13:00,
2013-10-29 22:21:00,41.0,39.0,-100.00,ENE,75,1.0,3.0,92,0.00,,,0.16,,2013-10-30 06:21:00,
2013-10-29 22:32:00,41.0,39.0,-100.00,ENE,75,1.0,3.0,92,0.00,,,0.16,,2013-10-30 06:32:00,
2013-10-29 22:42:00,41.0,39.0,-100.00,ENE,75,1.0,3.0,92,0.00,,,0.16,,2013-10-30 06:42:00,
2013-10-29 22:52:00,42.0,38.0,-100.00,SE,125,1.0,2.0,86,0.00,,,0.16,,2013-10-30 06:52:00,
2013-10-29 23:02:00,42.0,38.0,-100.00,SE,125,1.0,2.0,86,0.00,,,0.16,,2013-10-30 07:02:00,
2013-10-29 23:11:00,42.0,38.0,-100.00,SE,125,1.0,2.0,86,0.00,,,0.16,,2013-10-30 07:11:00,
2013-10-29 23:21:00,41.0,37.0,-100.00,ESE,120,1.0,2.0,86,0.00,,,0.16,,2013-10-30 07:21:00,
2013-10-29 23:32:00,41.0,37.0,-100.00,ESE,120,1.0,2.0,86,0.00,,,0.16,,2013-10-30 07:32:00,
2013-10-29 23:52:00,41.0,38.0,-100.00,SSE,155,0.0,1.0,91,0.00,,,0.16,,2013-10-30 07:52:00,